Howell, MI

6:10 AM EDT on July 28, 2017 (GMT -0400)
Livingston County

Weather History for KOZW - April, 2014

Change the Weather History Date:

Tuesday, April 29, 2014

  Actual Average Record
Temperature  
Mean Temperature 59 °F -  
Max Temperature 73 °F 63 °F 78 °F (2004)
Min Temperature 45 °F 41 °F 26 °F (2012)
Degree Days  
Heating Degree Days 6    
Growing Degree Days 9 (Base 50)    
Moisture  
Dew Point 46 °F    
Average Humidity 71    
Maximum Humidity 99    
Minimum Humidity 29    
Precipitation  
Precipitation 0.00 in - - ()
Sea Level Pressure  
Sea Level Pressure 29.64 in    
Wind  
Wind Speed 13 mph (SE)    
Max Wind Speed 21 mph    
Max Gust Speed 31 mph    
Visibility 8 miles    
Events Rain    
Averages and records for this station are not official NWS values.
T = Trace of Precipitation, MM = Missing Value Source: NWS Daily Summary

Daily Weather History Graph

Daily Weather History Graph

Search for Another Location

Airport or City:

Trip Planner

Search our weather history database for the weather conditions in past years. The results will help you decide how hot, cold, wet, or windy it might be!

Date:

Astronomy

Apr. 29, 2014 Rise Set
Actual Time 6:33 AM EDT 8:33 PM EDT
Civil Twilight 6:02 AM EDT 9:04 PM EDT
Nautical Twilight 5:25 AM EDT 9:42 PM EDT
Astronomical Twilight 4:44 AM EDT 10:23 PM EDT
Moon 6:51 AM EDT (4/29) 9:13 PM EDT (4/29)
Length of Visible Light 15h 01m
Length of Day
14h 00m
New Moon, 0% of the Moon is Illuminated
Apr 29
New Moon
May 6
First Quarter
May 14
Full
May 21
Last Quarter
May 28
New

Hourly Weather History & Observations

Time (EDT) Temp. Windchill Dew Point Humidity Pressure Visibility Wind Dir Wind Speed Gust Speed Precip Events Conditions
12:15 AM 49.3 °F - 33.4 °F 54% 29.79 in 10.0 mi ESE 15.0 mph 24.2 mph N/A   Overcast
12:35 AM 49.3 °F - 33.4 °F 54% 29.78 in 10.0 mi East 17.3 mph 26.5 mph N/A   Overcast
12:55 AM 49.3 °F - 33.8 °F 55% 29.76 in 10.0 mi East 13.8 mph 23.0 mph N/A   Overcast
1:15 AM 49.1 °F - 33.8 °F 56% 29.73 in 10.0 mi East 13.8 mph 24.2 mph N/A   Overcast
1:34 AM 49.1 °F - 34.7 °F 58% 29.72 in 10.0 mi East 20.7 mph 31.1 mph N/A   Overcast
1:55 AM 49.1 °F - 36.1 °F 61% 29.71 in 10.0 mi East 18.4 mph 25.3 mph N/A   Overcast
2:15 AM 48.7 °F - 37.2 °F 64% 29.70 in 10.0 mi ESE 15.0 mph 25.3 mph N/A   Overcast
2:34 AM 48.6 °F - 38.3 °F 68% 29.68 in 10.0 mi East 15.0 mph 24.2 mph N/A   Overcast
2:55 AM 48.6 °F - 39.2 °F 70% 29.67 in 10.0 mi East 15.0 mph 23.0 mph N/A   Overcast
3:15 AM 47.3 °F - 42.3 °F 83% 29.68 in 5.0 mi ESE 13.8 mph 17.3 mph N/A Rain Light Rain
3:34 AM 46.8 °F - 43.0 °F 87% 29.67 in 2.0 mi East 17.3 mph 21.9 mph N/A Rain Light Rain
3:55 AM 46.0 °F 39.3 °F 43.5 °F 91% 29.65 in 5.0 mi ESE 16.1 mph 23.0 mph N/A Rain Light Rain
4:15 AM 45.5 °F 39.6 °F 43.7 °F 93% 29.65 in 3.0 mi ESE 12.7 mph 20.7 mph N/A   Light Drizzle
4:34 AM 45.5 °F 38.9 °F 44.1 °F 95% 29.63 in 3.0 mi ESE 15.0 mph 19.6 mph N/A Rain Light Rain
4:55 AM 45.5 °F 39.9 °F 44.2 °F 95% 29.62 in 5.0 mi ESE 11.5 mph 19.6 mph N/A   Overcast
5:15 AM 46.0 °F 39.3 °F 45.0 °F 96% 29.61 in 7.0 mi ESE 16.1 mph 21.9 mph N/A Rain Light Rain
5:34 AM 46.4 °F 40.4 °F 45.5 °F 97% 29.60 in 7.0 mi East 13.8 mph 21.9 mph N/A   Overcast
5:55 AM 46.8 °F - 45.7 °F 96% 29.58 in 7.0 mi East 15.0 mph 19.6 mph N/A Rain Light Rain
6:15 AM 46.9 °F - 46.0 °F 97% 29.57 in 5.0 mi ESE 13.8 mph 21.9 mph N/A Rain Light Rain
6:35 AM 46.9 °F - 46.0 °F 97% 29.56 in 3.0 mi ESE 11.5 mph 17.3 mph N/A Rain Heavy Rain
6:55 AM 47.3 °F - 46.6 °F 97% 29.56 in 4.0 mi ESE 12.7 mph - N/A Rain Light Rain
7:14 AM 47.5 °F - 46.8 °F 97% 29.55 in 2.5 mi ESE 16.1 mph 20.7 mph N/A Rain Heavy Rain
7:35 AM 47.7 °F - 47.3 °F 99% 29.55 in 4.0 mi ESE 13.8 mph 20.7 mph N/A Rain Rain
7:55 AM 48.2 °F - 47.5 °F 97% 29.55 in 3.0 mi ESE 11.5 mph - N/A Rain Rain
8:14 AM 48.2 °F - 47.7 °F 98% 29.56 in 2.5 mi ESE 10.4 mph - N/A Rain Heavy Rain
8:35 AM 48.7 °F - 48.4 °F 99% 29.56 in 3.0 mi ESE 10.4 mph - N/A Rain Rain
8:55 AM 49.1 °F - 48.6 °F 98% 29.56 in 5.0 mi ESE 8.1 mph - N/A Rain Light Rain
9:14 AM 49.5 °F - 49.1 °F 99% 29.56 in 10.0 mi ESE 8.1 mph - N/A   Overcast
9:35 AM 50.0 °F - 49.8 °F 99% 29.56 in 7.0 mi ESE 8.1 mph - N/A Rain Light Rain
9:55 AM 50.5 °F - 50.2 °F 99% 29.55 in 5.0 mi East 12.7 mph - N/A   Overcast
10:14 AM 51.3 °F - 50.9 °F 99% 29.55 in 10.0 mi ESE 6.9 mph - N/A   Overcast
10:35 AM 52.7 °F - 52.2 °F 98% 29.56 in 10.0 mi ESE 12.7 mph - N/A   Overcast
10:55 AM 53.1 °F - 52.3 °F 97% 29.56 in 10.0 mi SE 10.4 mph - N/A   Overcast
11:14 AM 53.6 °F - 52.9 °F 97% 29.57 in 10.0 mi SSE 8.1 mph - N/A   Overcast
11:35 AM 55.8 °F - 54.9 °F 97% 29.58 in 10.0 mi SE 8.1 mph - N/A   Overcast
11:55 AM 57.2 °F - 55.8 °F 95% 29.59 in 10.0 mi SE 9.2 mph - N/A   Overcast
12:14 PM 58.3 °F - 56.3 °F 93% 29.59 in 10.0 mi SSE 8.1 mph - N/A   Overcast
12:35 PM 60.3 °F - 57.4 °F 90% 29.60 in 10.0 mi South 11.5 mph - N/A   Overcast
12:55 PM 62.6 °F - 57.2 °F 82% 29.60 in 10.0 mi South 8.1 mph - N/A   Mostly Cloudy
1:15 PM 63.9 °F - 56.1 °F 76% 29.61 in 10.0 mi South 9.2 mph - N/A   Scattered Clouds
1:35 PM 65.3 °F - 55.4 °F 70% 29.60 in 10.0 mi SSE 5.8 mph - N/A   Clear
1:55 PM 65.8 °F - 52.0 °F 61% 29.60 in 10.0 mi South 5.8 mph - N/A   Clear
2:15 PM 67.1 °F - 50.2 °F 55% 29.61 in 10.0 mi SSW 9.2 mph - N/A   Clear
2:35 PM 67.8 °F - 46.9 °F 47% 29.61 in 10.0 mi SW 6.9 mph - N/A   Clear
2:55 PM 68.9 °F - 47.5 °F 46% 29.62 in 10.0 mi SW 6.9 mph - N/A   Scattered Clouds
3:15 PM 70.7 °F - 46.8 °F 42% 29.62 in 10.0 mi SSE 9.2 mph 18.4 mph N/A   Scattered Clouds
3:35 PM 70.5 °F - 46.4 °F 42% 29.62 in 10.0 mi SE 11.5 mph 20.7 mph N/A   Scattered Clouds
3:54 PM 70.3 °F - 46.4 °F 42% 29.62 in 10.0 mi SSE 13.8 mph 18.4 mph N/A   Scattered Clouds
4:15 PM 70.7 °F - 44.8 °F 39% 29.61 in 10.0 mi South 12.7 mph 19.6 mph N/A   Mostly Cloudy
4:35 PM 72.7 °F - 43.7 °F 35% 29.62 in 10.0 mi SSE 18.4 mph 25.3 mph N/A   Scattered Clouds
5:15 PM 73.0 °F - 39.0 °F 29% 29.63 in 10.0 mi South 18.4 mph 25.3 mph N/A   Scattered Clouds
5:35 PM 72.3 °F - 38.5 °F 29% 29.63 in 10.0 mi South 18.4 mph 24.2 mph N/A   Scattered Clouds
5:55 PM 72.7 °F - 38.8 °F 29% 29.63 in 10.0 mi South 17.3 mph 24.2 mph N/A   Scattered Clouds
6:15 PM 72.5 °F - 38.1 °F 29% 29.64 in 10.0 mi South 16.1 mph 29.9 mph N/A   Scattered Clouds
6:35 PM 71.2 °F - 39.4 °F 31% 29.65 in 10.0 mi South 11.5 mph 19.6 mph N/A   Scattered Clouds
6:54 PM 70.9 °F - 39.9 °F 32% 29.65 in 10.0 mi South 11.5 mph 19.6 mph N/A   Scattered Clouds
7:15 PM 71.1 °F - 41.0 °F 34% 29.65 in 10.0 mi South 11.5 mph 16.1 mph N/A   Scattered Clouds
7:35 PM 69.4 °F - 40.8 °F 35% 29.66 in 10.0 mi South 9.2 mph - N/A   Scattered Clouds
7:54 PM 69.3 °F - 39.4 °F 34% 29.67 in 10.0 mi South 10.4 mph - N/A   Scattered Clouds
8:15 PM 68.7 °F - 40.3 °F 35% 29.68 in 10.0 mi SSE 11.5 mph - N/A   Scattered Clouds
8:35 PM 68.0 °F - 41.4 °F 38% 29.68 in 10.0 mi SSE 8.1 mph - N/A   Mostly Cloudy
8:54 PM 63.5 °F - 42.3 °F 46% 29.71 in 10.0 mi WSW 11.5 mph - N/A   Overcast
9:15 PM 61.5 °F - 45.0 °F 55% 29.74 in 10.0 mi SSW 15.0 mph 21.9 mph N/A Rain Light Rain
9:35 PM 59.4 °F - 46.9 °F 63% 29.78 in 7.0 mi South 19.6 mph 26.5 mph N/A Rain Rain
9:54 PM 58.1 °F - 47.5 °F 68% 29.80 in 10.0 mi SSW 9.2 mph - N/A   Drizzle
10:15 PM 57.4 °F - 47.8 °F 70% 29.80 in 10.0 mi SSW 6.9 mph - N/A Rain Light Rain
10:35 PM 56.5 °F - 48.7 °F 75% 29.78 in 10.0 mi Calm Calm - N/A Rain Light Rain
10:54 PM 55.9 °F - 49.5 °F 79% 29.78 in 10.0 mi SSE 3.5 mph - N/A   Light Drizzle
11:15 PM 53.8 °F - 50.4 °F 88% 29.76 in 10.0 mi East 3.5 mph - N/A Rain Light Rain
11:35 PM 53.6 °F - 50.7 °F 90% 29.75 in 10.0 mi Calm Calm - N/A   Overcast
11:55 PM 53.8 °F - 51.6 °F 92% 29.78 in 10.0 mi SE 5.8 mph - N/A   Overcast